GFSGL_sfc_rhum_099.txt.gz
RH
81 81 84 87 91 91 91 93 94 96 97 98 98 98 98 97 96 97 97 95 96 94 92 92 90 93 88 90 91 90 89 86 81 78 78 87 90 90 87 90 92 89 85
87 85 88 91 88 91 94 96 97 97 97 97 98 99 98 98 97 97 98 96 94 96 95 96 92 92 92 89 88 87 91 87 87 82 83 86 85 85 85 90 82 71 77
88 87 91 90 90 93 94 96 96 97 97 98 98 98 98 99 97 96 94 95 92 93 95 94 92 92 94 92 88 88 89 88 88 88 86 85 84 85 86 86 83 81 72
89 88 92 92 91 92 92 95 95 94 96 96 94 96 97 98 99 98 97 97 97 96 96 96 94 95 94 95 93 91 95 93 95 94 94 94 90 86 84 88 92 91 94
93 88 93 88 87 88 94 95 94 94 93 92 93 96 97 97 95 98 97 97 97 99 98 96 97 97 99 96 89 95 93 93 95 95 96 96 95 93 94 95 96 98 97
89 94 92 90 88 91 94 95 96 95 94 94 95 94 96 88 98 100 99 99 97 97 98 98 95 100 99 99 99 100 99 94 96 96 95 95 94 99 97 98 98 98 100
88 88 90 91 92 93 90 91 93 96 92 94 94 92 95 93 98 98 100 97 97 98 98 98 98 93 98 95 97 96 96 95 99 98 98 99 98 98 96 98 99 99 100
91 90 88 90 91 92 92 94 95 94 95 95 95 95 95 94 99 99 98 94 95 96 96 96 96 96 99 94 94 97 97 97 97 94 97 99 100 100 97 98 99 100 99
92 92 91 90 91 91 94 95 94 94 95 95 94 94 96 97 97 95 92 92 94 97 96 97 96 98 98 94 94 97 98 98 97 92 93 94 95 94 96 97 100 100 100
97 93 90 91 90 94 94 95 94 93 94 92 94 95 97 97 96 95 91 92 96 96 96 97 98 98 96 94 94 94 97 99 97 96 95 94 92 92 88 96 98 98 98
96 94 95 94 95 92 93 92 93 94 92 94 94 95 95 96 96 93 92 91 94 95 97 98 98 96 96 93 90 93 97 96 98 96 96 96 94 90 85 85 92 94 96
96 95 96 97 95 93 94 93 92 91 93 94 94 93 94 96 94 93 92 93 89 92 97 96 97 95 96 98 97 99 98 96 96 96 95 94 95 98 98 96 88 85 85
95 96 96 96 96 97 96 95 93 93 91 93 92 94 96 95 96 94 93 94 94 94 95 97 96 95 94 93 92 92 91 93 93 91 92 94 97 96 87 92 94 72 67
95 96 96 95 95 96 94 94 95 96 96 96 95 96 97 97 98 98 99 98 98 97 97 97 93 88 82 82 83 85 86 87 90 90 88 94 90 84 78 84 86 90 88
96 97 96 94 95 95 95 95 94 96 96 95 96 96 97 96 98 99 98 97 95 93 90 89 90 87 84 84 83 82 83 83 86 88 88 85 80 80 74 78 75 84 86
92 94 96 97 96 94 93 93 94 94 95 94 94 94 97 95 94 93 88 84 85 80 85 88 91 90 89 87 86 86 85 83 84 83 87 85 84 82 79 73 72 78 84
87 87 87 88 89 95 96 93 94 95 93 93 94 94 94 95 94 94 94 92 84 78 87 88 90 90 88 85 85 87 90 88 81 84 88 89 90 81 83 81 79 77 79
93 92 92 94 94 92 93 93 93 94 95 95 89 84 88 88 84 82 81 79 88 86 89 91 93 92 90 86 85 82 83 86 87 86 89 90 92 88 87 86 85 93 86
86 89 93 94 92 93 92 91 90 90 92 93 89 88 81 73 76 76 76 87 86 86 84 86 89 90 86 84 93 90 90 91 92 91 90 87 91 92 88 89 89 87 88
89 84 87 91 92 91 92 90 88 89 90 92 91 94 89 84 92 93 93 93 92 91 89 88 88 89 94 92 93 93 92 92 93 91 94 93 93 94 92 90 91 94 83
94 92 89 88 87 92 90 90 90 90 89 87 92 91 88 90 94 94 92 93 94 93 94 89 91 93 92 92 93 93 92 93 93 93 94 94 96 92 91 91 89 87 86
89 90 88 93 92 92 92 93 93 95 96 96 95 91 90 95 95 95 95 96 96 92 94 94 94 95 95 95 95 94 96 98 96 95 95 96 96 95 95 95 96 98 93
90 92 90 88 88 96 94 93 93 97 97 97 97 97 95 98 98 96 95 97 96 96 95 91 93 92 90 96 94 94 95 99 99 99 100 100 98 98 98 98 98 98 97
88 93 93 95 95 96 98 99 97 98 97 96 98 99 99 100 100 100 99 99 98 99 99 98 95 92 92 99 99 97 95 99 99 99 100 100 99 97 100 99 98 99 100
93 94 95 96 96 97 96 97 97 99 97 98 99 98 98 98 98 100 100 98 98 98 99 96 99 96 93 96 94 92 97 100 100 97 98 100 100 99 100 98 99 98 97
95 95 97 97 98 98 99 99 99 97 98 100 98 98 98 98 97 99 100 96 96 95 98 99 90 86 97 96 91 97 100 100 98 97 100 100 100 100 99 99 99 100 98

GFSGL_sfc_rhum_102.txt.gz
RH
97 97 96 96 94 96 95 96 96 97 97 98 98 98 98 98 97 98 97 94 96 95 93 93 91 89 93 96 92 90 83 86 84 87 84 90 93 87 90 90 92 88 86
93 96 96 93 92 94 95 96 96 97 97 96 98 98 97 98 98 98 98 97 96 96 96 96 94 95 91 96 96 92 90 86 87 87 85 88 90 93 91 94 92 88 86
89 95 96 95 95 97 96 96 97 97 97 98 98 99 98 98 96 97 96 98 97 96 94 93 91 93 95 96 94 95 94 90 85 90 88 88 90 92 92 91 88 89 77
90 96 95 97 96 96 95 94 96 97 98 98 97 97 97 98 99 98 98 97 95 95 96 92 91 90 91 95 94 95 95 96 94 92 92 92 91 90 89 92 92 92 95
88 91 94 95 94 95 95 95 97 96 95 95 95 97 98 94 91 98 98 98 97 98 97 97 95 95 99 97 94 98 97 97 95 92 94 95 94 96 94 94 94 98 98
87 88 88 90 94 95 98 98 96 94 95 94 96 95 93 89 99 99 100 99 98 98 98 98 98 99 99 100 100 100 100 96 95 96 95 91 94 95 98 98 98 99 100
89 86 88 89 92 93 90 91 94 97 94 95 95 93 96 96 99 99 100 98 98 99 99 99 98 98 99 97 99 98 98 98 100 94 93 97 99 98 97 99 99 99 100
88 89 89 91 91 91 92 94 95 94 96 96 96 95 96 95 98 99 99 96 97 98 98 99 99 99 99 97 97 97 98 98 98 96 99 100 100 100 95 96 98 99 98
92 93 94 96 92 91 95 95 94 94 95 96 96 95 96 97 96 96 94 95 96 98 98 99 99 99 99 97 96 98 98 98 96 95 96 95 94 96 97 98 100 99 99
95 94 94 95 96 96 94 95 93 92 94 92 94 95 95 97 97 95 91 93 97 98 98 98 98 98 98 97 95 95 98 98 97 95 94 91 90 93 92 98 100 100 98
96 95 95 94 96 96 94 94 94 93 92 94 95 95 95 95 97 94 92 94 96 97 97 98 99 97 97 96 94 95 98 95 96 95 96 94 90 87 84 88 94 96 95
95 95 96 96 96 97 96 95 95 94 92 93 93 94 95 95 93 92 92 93 93 94 98 98 97 96 96 96 96 97 96 95 94 95 95 96 97 95 92 90 91 85 79
92 95 96 96 96 96 96 96 94 96 96 96 94 95 96 95 95 93 91 92 92 94 95 95 93 92 90 93 94 95 96 96 96 95 96 96 94 91 89 89 80 72 68
94 95 96 95 95 96 95 95 94 96 96 96 96 96 98 96 97 98 97 96 96 94 93 95 96 96 95 96 95 95 96 96 93 90 88 89 83 83 84 83 84 86 71
92 95 94 93 95 95 95 95 95 97 97 96 97 96 97 97 99 97 97 98 97 97 96 95 94 94 94 94 91 87 86 85 89 90 88 86 83 78 76 76 74 74 78
91 90 92 93 92 91 92 93 93 94 94 95 96 96 97 97 96 95 95 95 90 86 91 94 95 94 93 92 92 91 88 88 87 85 88 84 82 81 74 71 70 77 77
92 90 89 89 89 91 91 90 93 90 87 93 94 94 95 95 95 94 94 93 94 91 94 95 96 95 95 91 92 92 94 91 86 88 89 91 87 86 86 80 78 78 78
91 93 95 96 94 92 93 93 93 95 96 95 83 86 86 87 89 90 91 87 92 91 93 94 95 95 94 93 91 91 91 91 89 88 90 92 91 88 88 84 81 88 81
86 91 94 95 96 96 92 91 92 93 94 94 91 87 86 79 82 82 83 92 93 92 89 91 93 91 91 88 93 94 94 94 93 94 94 92 96 88 90 87 86 88 86
94 88 92 95 95 96 96 93 91 93 94 95 95 97 89 86 94 95 95 95 94 93 91 91 91 93 94 94 96 94 93 93 93 92 96 96 97 95 96 94 95 97 86
97 96 98 94 96 97 98 98 97 95 96 97 98 96 92 93 96 95 94 96 96 96 96 94 96 96 96 95 92 95 95 96 95 96 96 95 97 95 93 93 95 91 87
96 95 93 96 94 95 97 96 98 98 97 97 98 97 97 97 97 96 96 98 98 96 95 96 96 97 98 96 95 97 98 98 99 98 99 98 98 95 97 98 97 97 91
96 97 96 94 95 99 97 97 99 98 98 100 99 97 98 99 99 98 100 100 98 97 96 93 96 97 97 99 99 97 97 99 99 99 100 100 98 99 100 100 98 97 99
94 97 94 97 98 98 98 100 100 99 98 98 99 100 100 100 100 100 100 100 100 100 100 100 97 97 98 100 100 98 94 100 98 98 99 100 100 100 100 99 99 99 100
98 99 99 99 100 100 100 99 100 100 100 100 100 100 99 99 100 100 100 100 100 100 100 100 100 99 99 97 96 94 100 100 98 100 100 100 100 100 100 99 100 100 100
98 98 99 99 99 100 100 100 100 98 100 100 100 100 99 99 99 100 98 96 98 100 100 99 96 100 96 95 93 99 100 99 98 100 100 99 100 100 100 100 100 99 99

GFSGL_sfc_rhum_105.txt.gz
RH
92 95 99 99 99 98 97 98 98 98 97 96 96 95 96 97 98 97 95 94 96 95 96 96 94 91 90 88 89 88 80 86 82 87 87 94 91 88 87 86 86 86 86
90 92 98 98 98 98 99 98 98 98 98 98 99 99 99 99 98 98 98 94 95 96 94 95 93 93 92 91 90 88 85 84 88 89 93 96 94 91 92 91 91 85 94
90 93 99 98 98 98 97 97 96 96 97 98 97 98 98 98 97 96 97 97 96 96 93 96 94 94 95 94 92 93 91 90 87 90 93 90 93 97 97 95 96 92 87
88 88 94 97 98 98 97 96 97 96 98 98 98 98 98 98 98 98 98 97 94 94 94 95 93 94 91 93 93 93 94 94 93 92 96 97 95 96 95 96 98 96 94
89 88 93 92 97 98 97 97 97 97 96 97 97 98 98 93 89 96 96 98 98 98 99 97 96 96 98 92 91 95 96 96 96 95 98 98 98 99 96 96 95 99 99
94 90 88 87 87 92 95 98 95 94 92 92 92 93 94 89 98 99 99 99 99 98 98 98 96 99 100 100 100 100 97 95 95 95 94 95 94 93 98 96 97 99 100
90 89 89 89 88 90 89 90 94 96 93 95 94 93 96 94 98 99 100 96 98 98 99 99 99 98 99 97 99 99 99 99 100 95 97 97 97 96 97 99 99 99 100
87 89 91 88 89 89 90 92 94 94 96 96 96 95 96 94 97 98 98 96 97 98 98 98 99 99 99 98 98 98 98 98 99 99 100 100 100 100 97 97 98 99 98
89 90 91 92 92 91 93 95 96 95 95 96 95 95 96 97 96 96 94 95 96 98 97 98 98 99 99 98 98 99 99 99 99 98 98 97 98 98 98 97 100 99 99
94 94 90 90 94 96 96 94 96 95 96 93 94 94 95 97 98 94 93 94 97 97 98 98 98 98 98 97 97 96 97 99 98 97 96 93 93 95 95 100 100 99 98
92 92 94 93 95 95 96 97 96 96 95 95 94 95 95 95 95 94 95 94 96 97 97 98 98 98 98 97 96 98 98 97 98 97 96 96 95 92 92 96 97 96 97
90 91 92 94 95 96 96 96 96 96 95 96 94 93 94 95 92 93 92 93 93 94 97 97 96 94 94 94 95 96 96 95 96 95 95 96 94 90 90 92 92 89 89
90 92 92 90 92 94 94 96 95 96 96 96 96 95 96 95 96 94 92 90 91 94 95 94 92 93 93 94 92 92 93 95 95 94 96 97 97 97 92 87 83 63 62
91 92 91 91 91 93 92 94 94 95 96 96 96 96 97 96 96 96 97 96 96 95 96 96 96 96 95 95 95 95 96 96 96 96 96 97 95 92 87 81 76 67 65
88 91 93 90 91 91 93 95 95 97 97 96 97 96 96 96 98 96 96 96 96 97 95 93 93 93 94 94 94 94 94 94 94 94 90 86 80 76 75 74 71 71 77
88 89 93 93 93 91 91 90 86 92 94 94 94 95 97 96 95 94 94 93 93 94 93 95 96 96 95 95 94 94 94 92 88 87 87 84 83 81 79 77 76 77 78
92 90 90 87 88 92 92 93 95 85 76 81 87 91 93 94 93 93 92 90 91 87 94 95 96 96 95 94 94 93 94 93 88 90 91 93 92 90 90 88 90 88 87
92 94 96 96 94 94 96 96 96 96 96 94 82 85 81 82 84 85 86 83 91 89 93 94 95 95 94 93 92 92 92 91 91 90 93 94 94 92 92 87 86 90 78
88 95 97 97 96 94 95 95 95 96 96 95 90 87 87 80 82 85 84 92 93 93 90 91 93 92 90 89 94 94 94 94 95 95 94 92 96 90 91 88 88 88 83
97 95 97 98 98 97 96 96 96 96 97 97 96 98 91 86 94 95 95 95 94 94 93 91 91 93 94 93 95 94 94 94 94 93 96 96 96 93 94 94 94 92 83
98 97 98 95 97 99 99 98 98 98 98 98 100 99 96 95 96 96 96 97 97 97 97 95 96 97 95 95 91 93 93 96 96 96 96 94 96 94 92 91 92 90 87
97 97 96 98 95 98 99 98 98 98 98 98 100 99 98 98 98 97 97 99 99 98 97 96 96 97 96 94 94 97 97 99 99 98 98 98 97 98 98 96 96 97 93
97 98 97 97 96 99 99 98 100 100 100 100 99 98 98 100 100 100 100 100 98 99 99 98 98 97 97 98 98 98 97 100 100 100 100 100 99 100 100 99 99 99 100
96 98 96 98 98 99 100 100 99 98 98 100 100 100 100 100 100 100 100 100 100 100 100 100 99 98 99 100 100 100 97 100 99 100 100 100 100 99 100 99 100 100 100
99 100 100 100 100 100 100 99 100 100 100 100 100 100 100 100 100 100 100 100 100 100 100 100 100 100 100 98 97 99 100 100 99 100 100 100 100 100 100 100 100 99 100
99 98 99 100 100 100 100 100 100 100 100 100 100 100 100 100 100 100 99 99 100 100 100 100 100 100 96 97 96 100 100 100 99 100 100 99 100 100 100 100 100 100 100

GFSGL_sfc_rhum_108.txt.gz
RH
91 93 98 99 97 98 98 98 98 98 98 98 98 98 98 98 99 99 98 97 98 95 94 93 91 91 94 92 91 91 88 90 82 86 86 90 90 88 87 89 88 88 86
91 94 99 99 98 98 98 98 98 99 98 98 98 98 98 98 99 98 98 97 97 96 92 93 94 94 95 93 92 92 90 89 92 90 93 93 93 89 88 92 89 86 92
89 91 94 97 99 99 99 98 99 99 99 99 99 99 99 99 99 98 98 98 98 96 93 94 93 93 97 97 94 90 86 84 88 93 96 94 96 93 95 94 94 95 88
84 89 93 94 97 99 98 98 98 97 98 98 97 97 97 97 98 96 94 97 97 96 94 93 93 93 92 93 94 90 87 90 90 88 97 97 96 97 93 96 98 94 94
86 88 93 91 90 94 96 98 99 98 98 97 98 98 97 92 89 95 95 97 98 97 92 92 91 94 98 94 92 93 91 92 93 92 93 98 98 99 97 97 98 98 99
90 93 91 91 89 91 92 90 92 91 91 91 93 93 94 87 97 98 98 99 96 97 97 97 96 100 99 100 100 99 94 92 92 92 91 93 92 94 98 97 98 99 100
91 97 95 97 98 90 86 88 92 94 92 94 94 93 95 92 96 98 99 94 96 97 98 97 98 99 100 99 100 100 100 100 95 87 90 90 96 94 95 99 99 98 99
86 91 94 98 98 93 88 91 92 92 94 95 95 94 95 92 96 96 97 94 96 96 97 98 98 98 98 99 98 98 98 98 99 99 98 100 100 100 95 95 97 100 99
89 90 90 90 95 96 94 94 95 91 92 94 93 94 94 95 96 96 93 94 96 98 96 97 98 98 99 96 96 98 99 99 99 98 99 98 98 98 99 99 100 99 99
94 94 90 91 92 93 95 96 97 94 95 91 90 91 92 94 94 94 93 95 97 98 97 97 98 98 98 98 98 96 99 100 98 97 97 96 97 96 95 100 100 100 98
92 91 92 92 95 97 95 96 94 96 96 96 95 94 92 95 93 91 91 94 96 97 97 97 97 94 96 96 97 99 98 98 97 96 96 96 96 96 96 96 97 98 97
89 91 91 92 92 92 92 94 94 93 93 95 96 96 94 95 93 92 90 92 90 93 97 97 96 92 92 93 94 95 95 96 95 95 95 96 96 95 96 95 95 95 94
90 91 92 90 92 91 92 92 92 90 91 94 93 95 96 96 97 95 94 94 91 93 95 93 90 89 89 92 91 91 91 93 93 93 95 96 96 96 90 78 69 62 63
91 90 92 92 92 92 90 90 90 91 92 92 92 94 94 94 95 96 96 96 95 94 95 95 96 93 91 91 92 94 95 95 93 94 95 96 96 94 93 87 81 67 65
90 91 91 90 92 93 94 93 92 95 91 93 95 94 94 94 97 95 95 96 96 97 95 94 94 94 93 94 94 94 94 94 94 96 95 95 94 93 92 88 86 85 86
90 89 89 88 92 92 94 92 78 80 80 80 81 86 94 93 91 92 92 92 92 93 92 94 95 96 95 94 94 94 94 94 94 94 94 92 91 90 87 84 81 83 85
92 85 80 79 86 92 93 94 96 85 72 77 81 79 80 81 83 87 90 90 91 87 93 94 95 95 95 94 94 94 94 94 93 92 91 92 91 88 89 88 87 85 87
94 95 93 91 95 95 96 96 95 96 95 93 82 83 80 80 82 82 76 76 87 87 92 94 94 94 93 92 92 92 92 93 93 92 94 94 93 88 88 86 85 86 77
90 96 98 97 96 96 96 95 96 95 95 95 90 90 88 80 81 85 85 93 93 93 89 90 92 91 88 84 92 93 94 94 93 94 92 90 94 85 88 85 84 86 77
97 95 96 98 98 97 97 96 96 96 96 97 97 98 92 85 94 96 95 96 95 94 93 92 90 90 92 90 94 94 93 94 92 90 94 94 94 90 91 89 88 85 77
98 97 97 95 97 99 99 98 98 98 98 98 100 100 98 95 98 98 98 98 98 96 98 95 96 96 95 94 86 92 92 94 93 92 91 92 96 92 88 88 89 84 78
96 96 96 98 97 98 99 98 98 98 97 98 99 98 99 98 98 98 98 100 100 98 96 96 95 95 95 93 92 96 97 98 96 95 94 94 92 92 90 89 90 91 85
96 96 96 96 96 98 98 98 100 100 100 100 99 98 98 100 100 100 100 100 99 99 99 97 98 97 97 98 96 94 95 97 97 98 98 97 94 92 91 91 91 93 91
97 98 94 97 99 100 100 100 100 99 100 100 100 100 100 100 100 100 100 100 100 100 100 100 99 97 96 100 99 96 91 97 95 97 99 98 94 92 94 92 93 96 94
99 100 100 100 100 100 100 100 100 100 100 100 100 100 100 100 99 100 100 100 100 100 100 100 100 99 98 98 99 98 100 100 99 100 98 97 97 97 96 93 94 91 96
99 99 100 100 100 100 100 100 100 100 100 100 100 100 100 100 98 100 100 99 100 100 100 100 99 100 97 94 95 100 100 100 99 100 99 96 97 97 97 97 98 95 95

GFSGL_sfc_rhum_111.txt.gz
RH
90 91 95 97 94 91 93 86 82 89 91 91 87 88 93 98 97 98 97 97 98 97 97 95 94 91 92 91 90 83 89 90 96 73 85 92 92 90 84 78 71 70 66
90 91 94 95 97 97 98 97 95 94 92 90 92 96 98 98 97 98 98 98 98 94 89 92 92 93 93 88 90 91 87 88 88 91 91 94 93 92 85 82 74 66 64
88 92 93 95 96 98 98 98 98 98 98 97 94 95 96 98 98 99 98 98 96 96 94 93 86 84 89 93 93 94 91 87 89 90 93 93 92 92 91 88 80 78 75
86 89 93 94 95 96 97 97 98 98 98 97 96 96 97 96 93 93 91 93 92 90 90 88 89 90 94 93 93 93 93 94 92 92 92 94 93 96 89 94 97 93 87
86 89 93 92 90 92 93 93 93 93 92 91 92 91 91 88 88 94 91 92 90 89 90 89 88 86 91 92 90 93 93 95 95 94 93 93 95 98 96 92 95 97 95
90 92 88 90 90 92 92 92 92 92 91 90 92 92 92 83 96 97 98 97 95 93 92 86 84 97 99 100 100 100 96 94 94 94 92 94 90 90 92 96 98 97 99
90 95 96 93 97 100 90 91 92 96 92 95 93 90 92 90 96 96 97 92 94 94 94 94 89 83 96 98 100 100 100 100 93 88 90 89 90 89 90 95 97 95 98
84 90 95 95 95 99 99 97 99 96 97 92 92 90 90 88 94 96 96 92 94 94 95 94 95 95 95 98 98 98 98 98 99 100 95 97 98 92 88 88 91 100 100
87 89 92 95 96 96 96 97 97 94 92 92 90 90 90 91 91 93 91 92 93 96 93 93 94 96 98 94 96 99 100 100 99 98 98 97 98 98 100 98 99 98 100
94 93 89 88 91 96 97 98 98 94 96 92 92 92 90 91 88 89 90 90 94 94 94 93 94 95 96 96 94 95 100 100 100 100 99 96 98 98 97 100 100 100 100
91 89 91 91 92 93 92 93 99 98 95 97 97 96 93 95 94 89 88 93 94 92 94 94 94 92 93 93 94 99 99 100 99 99 98 97 96 96 96 96 97 99 99
89 91 92 92 93 91 91 91 90 92 92 92 91 90 91 96 94 95 94 91 87 90 95 94 94 88 90 92 93 94 93 93 94 95 95 95 95 95 95 95 96 96 95
88 91 93 91 89 91 91 91 89 90 89 91 89 90 91 90 94 91 94 93 94 94 95 95 89 88 87 91 91 90 92 92 92 93 94 96 96 96 95 94 94 93 93
86 88 90 92 91 92 86 86 88 88 90 90 90 89 90 89 91 91 92 93 88 90 90 94 94 93 91 93 94 94 94 94 95 94 95 96 95 94 93 93 93 93 91
83 83 85 81 87 84 87 88 86 93 90 90 91 90 94 94 96 88 89 92 92 92 86 85 89 89 91 92 93 93 94 93 93 95 95 95 94 91 91 89 91 91 92
74 67 74 73 74 72 73 72 72 74 75 78 76 82 86 81 79 80 82 84 83 77 82 87 91 91 91 91 92 93 93 92 92 92 93 91 91 92 91 89 86 85 84
70 64 61 64 64 69 70 70 73 72 67 73 78 76 75 78 79 77 77 78 78 74 84 87 90 91 91 88 90 90 91 92 92 90 91 91 91 90 87 85 85 81 81
82 88 73 74 75 76 77 78 77 80 82 81 71 76 80 78 80 81 75 66 74 72 75 81 84 83 81 83 84 85 87 89 90 90 91 92 92 90 90 89 87 87 77
73 80 85 84 85 84 80 78 77 77 78 78 72 69 73 76 78 81 80 81 80 78 72 72 77 74 71 70 83 85 87 88 87 88 85 84 86 76 78 77 78 75 68
84 87 89 84 85 83 81 78 76 76 76 76 77 78 66 67 82 86 87 87 84 79 77 72 71 72 76 75 84 85 83 83 82 80 87 87 85 77 78 75 74 71 60
81 81 90 78 80 80 79 79 74 74 74 73 78 86 87 71 77 80 78 86 84 79 83 77 80 81 78 77 70 80 81 82 80 80 79 79 84 80 73 72 71 64 58
71 71 71 76 74 81 77 75 79 76 75 75 77 78 85 78 74 74 77 85 83 77 75 79 77 75 75 74 75 81 82 87 85 81 80 78 74 75 72 73 74 72 63
70 73 68 66 70 77 78 76 80 79 79 82 84 81 80 84 83 78 83 90 82 83 81 78 82 78 78 80 78 75 76 80 83 85 82 79 74 75 75 75 72 72 71
74 79 71 74 81 76 82 86 86 83 84 83 86 86 84 87 90 89 90 90 88 87 87 87 81 78 77 83 81 74 72 80 78 83 85 79 75 72 75 72 73 80 76
83 85 84 85 89 89 88 83 85 87 87 88 89 87 82 86 81 86 90 88 86 90 84 85 84 78 81 84 84 79 88 90 85 95 82 81 82 80 77 73 75 73 77
81 80 81 85 86 87 88 90 88 88 89 89 90 91 90 86 84 89 88 88 84 84 85 86 83 82 75 72 74 87 86 88 82 93 83 78 80 78 77 77 75 75 74

GFSGL_sfc_rhum_114.txt.gz
RH
88 91 93 93 78 67 81 82 74 76 74 81 82 89 90 93 92 92 93 92 93 88 91 93 91 88 92 93 92 89 87 88 93 81 70 70 94 93 89 90 83 82 64
87 90 94 93 95 88 84 82 84 80 84 85 89 93 92 92 90 92 96 94 91 95 96 97 95 90 91 80 80 89 86 84 89 85 79 90 91 90 88 93 85 72 66
85 89 93 94 94 96 96 97 97 97 98 98 96 96 95 94 93 97 97 97 96 96 93 89 82 74 76 80 85 88 88 85 83 88 87 79 85 84 95 94 91 86 69
86 87 93 94 94 94 94 95 96 96 97 96 94 92 91 90 90 91 94 96 94 91 89 80 73 74 76 80 83 88 89 91 92 94 91 93 92 90 91 95 98 96 92
88 88 92 91 89 91 93 93 93 93 92 89 88 88 88 87 89 92 87 88 88 81 76 71 73 87 96 95 90 88 87 94 96 95 96 93 94 96 97 93 94 98 96
94 96 88 95 91 90 93 92 91 91 90 90 90 90 92 86 96 97 96 93 90 89 89 87 82 88 88 94 98 100 99 94 92 93 93 95 91 91 92 92 95 98 99
94 96 95 95 99 98 95 98 95 95 93 94 93 92 94 93 96 96 96 91 92 93 93 91 87 78 88 84 89 98 99 98 99 98 95 92 89 87 89 94 96 93 92
89 94 95 95 95 97 96 96 98 97 96 93 95 95 95 92 94 95 93 90 92 93 92 91 92 92 92 94 89 91 96 96 97 98 100 100 97 86 87 88 91 98 100
84 88 92 96 97 96 97 98 98 96 95 96 94 95 93 92 91 90 86 88 90 92 88 89 88 91 95 95 90 98 100 100 100 96 97 97 97 98 99 95 99 98 100
92 91 86 86 92 95 98 99 99 99 98 95 95 95 91 93 93 93 90 88 92 89 88 89 89 90 91 93 95 97 100 100 100 100 100 97 96 98 98 100 97 98 100
91 91 91 91 91 93 94 97 94 94 94 96 98 97 97 97 96 94 93 92 94 90 92 95 95 90 89 89 91 97 98 98 94 94 94 95 96 95 96 97 98 99 100
89 91 90 91 91 92 92 95 91 94 94 99 98 90 87 93 88 87 86 88 93 95 96 96 97 90 88 89 92 90 90 89 93 94 93 95 95 95 96 96 96 96 96
86 88 87 87 89 89 90 91 87 88 87 88 87 89 90 88 91 84 83 83 87 90 90 94 94 93 87 90 90 88 90 92 92 93 95 96 96 96 95 94 95 95 94
81 80 80 82 82 84 82 82 85 88 88 89 89 90 89 88 90 90 92 94 85 87 88 92 90 91 91 94 94 94 94 95 95 95 96 96 91 90 91 92 91 92 90
69 74 72 66 72 70 75 73 72 84 81 81 84 86 91 92 94 84 87 88 87 85 89 89 87 84 83 83 85 88 88 88 91 94 95 93 91 92 90 87 92 93 92
63 56 61 60 61 59 60 64 66 68 69 72 73 77 80 77 77 75 75 75 74 74 80 85 88 88 85 83 83 83 85 87 87 88 90 90 89 87 88 91 90 91 91
59 54 51 54 54 60 62 61 66 66 61 64 67 70 73 75 75 74 68 64 65 67 80 83 87 87 83 76 78 79 83 85 88 85 86 88 89 89 88 87 89 87 87
67 68 64 65 67 69 69 70 69 72 76 74 63 64 66 70 72 73 68 57 64 62 64 71 74 70 64 64 68 74 76 78 80 82 87 89 90 89 90 88 87 89 86
66 68 71 73 73 72 71 70 69 69 71 70 66 62 62 62 64 67 68 72 70 66 59 58 64 63 60 58 73 74 78 79 78 80 78 79 85 74 78 77 76 69 60
70 74 69 71 70 70 69 68 66 66 66 67 70 72 64 59 75 76 77 79 74 66 65 58 59 63 68 66 74 78 73 74 73 69 78 79 77 69 70 67 67 63 52
66 66 66 63 63 63 63 64 62 63 64 62 66 80 75 66 69 70 67 75 72 66 73 66 69 72 71 70 62 71 70 73 71 70 70 69 77 71 64 63 63 56 49
59 57 56 60 57 65 62 57 62 63 61 63 65 66 69 70 66 66 67 77 76 68 64 68 67 65 67 68 69 76 72 76 76 72 70 67 64 66 64 64 65 63 55
58 63 57 53 59 60 66 60 66 69 68 69 68 67 68 74 75 69 74 79 73 75 72 70 74 70 70 73 72 70 72 73 73 78 74 70 65 66 68 67 63 64 65
61 66 59 62 70 67 73 76 71 64 67 72 76 76 74 75 79 76 77 78 75 76 76 75 72 73 70 74 75 67 67 76 72 71 73 71 65 62 66 63 65 69 67
70 74 72 70 75 76 77 71 72 74 74 75 76 76 69 72 71 78 76 75 73 75 70 73 74 67 66 74 74 74 81 78 76 84 70 67 71 68 69 65 68 65 66
71 69 72 73 75 77 78 79 78 75 75 77 76 77 77 75 73 78 77 74 72 70 71 69 68 67 73 60 60 81 80 80 79 81 78 67 70 69 68 67 53 67 62

GFSGL_sfc_rhum_117.txt.gz
RH
87 87 89 89 89 87 79 71 64 64 62 64 76 87 89 90 91 91 90 90 92 92 91 92 88 81 84 89 90 80 80 81 92 76 64 62 69 80 81 89 85 88 86
93 88 91 91 91 91 87 68 67 67 64 65 70 76 80 92 93 94 93 93 94 87 93 94 91 87 87 88 93 93 92 89 90 89 72 76 75 71 78 88 92 85 88
90 90 90 92 92 93 94 94 95 79 78 87 87 96 96 97 97 96 93 91 91 93 92 94 90 92 96 94 89 83 82 82 80 84 86 81 82 73 85 89 90 92 88
94 87 91 91 91 92 92 92 93 92 92 93 92 93 93 92 92 94 98 98 98 98 96 96 93 90 88 90 83 84 79 83 92 94 87 86 86 84 83 94 98 94 95
98 92 93 89 87 89 91 91 91 92 91 92 93 93 92 92 94 97 96 95 95 93 90 83 90 92 97 94 84 87 90 93 93 94 93 92 93 96 97 91 94 95 99
95 97 95 94 89 89 90 90 89 90 90 90 92 92 95 93 97 98 95 93 90 90 91 88 83 87 87 93 92 97 98 96 96 96 94 95 89 91 91 95 96 99 99
95 97 97 98 97 96 93 93 93 94 91 93 93 91 94 94 97 96 95 92 93 92 92 90 82 79 89 83 86 94 94 96 98 97 97 97 97 95 92 93 95 96 92
85 92 96 95 96 98 97 96 96 96 95 95 95 94 93 94 94 98 98 96 99 92 90 90 90 89 90 93 89 86 94 97 96 95 98 100 100 97 98 94 90 94 100
85 86 87 91 95 97 97 98 98 98 96 97 95 94 94 94 93 92 92 95 95 95 94 94 88 90 91 93 89 98 100 100 99 90 89 89 92 93 96 99 99 99 100
90 87 81 82 88 92 94 96 97 99 99 98 96 97 95 96 97 93 93 92 94 93 90 91 92 91 89 90 94 97 99 100 100 97 94 92 90 92 90 98 99 99 100
87 86 86 86 87 87 87 90 93 91 89 91 92 92 94 94 96 96 95 97 97 95 95 96 96 91 92 90 90 96 96 94 93 94 94 93 92 93 94 94 96 99 100
83 84 86 84 89 86 86 87 87 86 87 86 87 86 85 88 83 85 86 87 89 92 96 95 96 91 92 92 92 91 87 87 92 94 94 95 95 95 95 95 95 96 97
81 82 83 85 84 84 86 88 84 85 83 86 82 86 86 85 86 80 81 83 86 92 94 89 83 82 82 88 86 89 91 93 92 93 95 96 97 96 93 92 90 92 94
80 80 82 80 86 85 77 79 83 86 86 87 87 88 87 86 88 87 86 89 85 89 92 92 87 87 81 85 87 89 96 95 94 95 95 96 95 95 94 94 95 95 90
75 79 80 68 79 77 80 74 73 82 77 82 86 86 90 91 88 77 78 83 87 88 87 87 86 84 84 84 84 83 84 84 88 90 87 85 84 84 91 94 93 95 94
58 56 62 61 62 62 62 64 65 67 66 66 65 72 80 71 69 70 65 64 64 68 76 86 90 89 88 85 87 86 84 83 86 85 82 80 82 85 87 88 91 90 90
53 51 52 55 56 60 61 62 66 66 59 62 63 63 64 66 66 68 66 58 58 62 76 77 82 82 76 71 77 81 86 86 83 82 82 81 82 79 84 87 90 90 89
62 64 62 64 66 67 67 67 67 70 73 72 62 63 64 61 63 64 65 57 61 59 59 65 70 68 62 60 64 66 70 76 82 84 86 90 88 83 85 86 87 91 88
64 64 70 71 70 68 68 67 65 66 67 66 63 63 64 62 58 61 63 71 68 63 57 56 61 63 60 58 74 75 78 75 74 78 81 81 85 80 82 82 83 80 81
67 64 64 66 66 66 65 64 62 63 63 63 64 76 60 61 72 74 73 76 72 63 64 58 58 64 71 68 73 77 72 73 73 72 76 81 82 70 68 66 66 63 52
64 62 58 59 59 60 61 60 58 60 60 59 62 72 69 64 67 67 65 74 73 67 71 66 69 70 69 69 63 75 69 74 74 73 69 72 75 72 64 61 61 55 48
56 56 52 55 55 62 59 54 59 61 59 61 63 63 63 69 66 65 65 78 80 72 67 68 75 65 68 70 70 76 73 75 75 76 79 68 65 65 63 63 65 62 52
56 61 56 50 58 58 65 60 66 67 65 67 67 68 70 79 76 70 75 78 72 75 73 72 75 71 70 78 78 72 73 76 75 74 79 81 64 76 70 68 63 66 67
60 66 59 62 69 66 75 75 74 65 69 74 81 80 77 74 77 77 84 82 75 76 83 75 74 76 68 73 74 68 67 75 74 79 75 74 76 72 70 61 63 68 64
70 73 70 70 74 79 84 80 77 79 79 80 81 77 69 71 69 76 81 77 74 72 75 71 76 66 74 68 70 71 77 77 76 77 82 70 66 65 69 64 71 62 66
68 66 68 73 75 76 79 79 78 77 77 78 80 83 77 73 73 80 80 77 74 72 66 74 69 70 68 63 79 78 78 79 78 80 80 74 72 73 82 66 64 64 62

GFSGL_sfc_rhum_120.txt.gz
RH
88 87 87 86 86 85 87 87 85 83 80 76 75 87 83 90 87 88 92 91 93 91 92 91 89 86 91 94 95 94 91 94 93 88 93 93 92 91 91 96 92 93 90
96 86 88 88 87 89 91 93 91 86 81 80 74 79 81 85 89 90 91 93 93 93 92 93 90 90 92 90 98 97 98 96 96 94 90 90 91 90 92 96 94 88 89
98 93 89 91 91 92 91 91 91 92 94 94 94 96 98 97 94 94 93 93 94 92 93 94 91 92 95 98 98 98 98 97 96 97 93 88 91 90 91 93 94 91 88
99 97 92 94 93 92 90 88 90 89 91 92 93 94 95 95 96 97 96 96 96 96 94 97 97 97 97 97 95 95 94 96 96 97 97 96 94 94 95 94 98 96 95
97 97 98 97 89 87 88 88 87 92 96 91 90 92 93 93 96 96 95 95 96 95 94 91 94 95 98 97 93 96 95 96 97 97 96 92 94 94 95 89 94 90 94
96 98 98 99 93 88 88 89 92 92 92 90 92 91 95 93 97 96 94 94 92 94 94 92 89 93 94 95 98 99 96 96 97 98 98 98 93 92 94 96 93 96 99
94 95 96 96 97 98 94 90 93 94 90 92 93 92 94 96 99 97 94 94 94 94 94 93 88 87 94 92 97 97 97 97 98 97 97 98 98 99 97 97 95 97 96
82 86 88 94 96 97 97 94 96 96 94 93 93 93 92 93 92 95 95 97 95 96 96 96 96 94 94 94 94 97 97 98 98 95 98 99 98 96 96 95 97 98 99
78 81 80 84 88 89 93 95 97 96 96 95 95 94 94 96 94 95 94 95 95 96 93 93 94 96 96 98 94 98 99 98 97 88 87 86 87 88 91 97 100 100 100
87 78 78 76 82 88 91 91 88 89 95 93 94 96 92 97 97 97 95 95 96 96 94 94 94 95 93 93 94 96 98 98 97 95 94 91 90 91 89 96 98 99 100
82 83 79 80 82 82 84 86 86 86 85 89 90 90 90 88 90 86 89 94 95 94 94 95 97 96 96 95 95 96 98 97 97 97 95 95 94 94 95 95 96 98 99
83 81 86 84 83 83 83 85 85 85 87 86 87 86 86 88 80 79 80 84 91 94 96 96 97 89 85 88 93 95 95 96 97 96 94 95 96 96 96 95 94 94 95
82 83 81 87 85 84 85 85 83 84 86 88 86 89 88 85 86 76 73 79 85 93 90 86 83 81 84 87 83 85 88 92 94 94 96 96 97 97 92 91 90 89 89
79 81 81 79 90 86 83 84 84 85 86 87 90 90 89 86 85 84 83 83 82 86 85 84 83 82 80 82 86 85 88 90 95 96 95 95 96 91 91 88 90 90 88
77 77 78 74 78 87 89 84 85 83 76 82 85 87 88 88 83 73 73 78 80 84 83 82 83 83 85 85 84 85 86 86 91 92 94 93 92 91 91 88 89 87 93
67 67 71 72 73 72 74 80 69 73 67 64 65 71 81 66 64 65 64 60 60 64 78 85 87 86 83 83 85 87 86 88 90 90 91 92 96 93 94 90 88 91 94
64 65 66 68 69 73 74 74 79 74 62 67 64 62 66 62 62 64 65 61 60 65 79 83 86 85 82 81 82 86 86 86 82 94 93 92 93 91 95 93 93 91 92
71 76 75 78 78 79 79 79 79 80 83 81 72 67 62 65 60 62 64 66 75 70 73 78 83 82 81 79 83 84 89 85 85 84 87 93 95 95 95 93 94 96 94
70 73 80 82 81 80 79 78 77 77 79 79 78 79 69 63 60 62 67 81 82 80 76 74 81 81 80 78 87 88 86 88 86 87 91 87 91 95 93 91 96 92 94
79 77 80 78 78 77 77 76 75 76 76 77 79 86 74 74 82 82 87 86 86 83 83 80 81 83 86 84 86 88 88 87 86 90 90 88 90 88 89 92 88 89 75
77 74 77 72 73 73 75 75 74 77 78 76 80 85 84 82 84 84 83 89 88 88 89 84 87 90 86 87 86 89 88 90 88 86 90 93 91 94 90 88 90 86 76
70 69 67 69 69 77 74 71 76 79 76 78 83 82 83 87 85 84 86 94 94 89 88 89 89 85 84 87 93 92 88 91 92 91 89 90 89 86 93 92 90 92 85
70 76 72 66 74 76 81 79 82 85 83 85 85 86 88 90 91 86 88 96 94 94 92 94 93 95 92 91 88 89 89 91 91 89 94 94 93 88 93 93 90 92 92
75 80 74 76 82 82 85 87 87 83 83 85 88 89 91 93 94 92 92 94 94 92 92 94 94 92 93 91 93 90 91 94 91 90 93 94 93 88 90 87 94 91 92
83 84 82 83 87 87 87 85 84 85 85 85 88 87 87 86 86 92 92 92 92 94 90 90 94 86 82 83 94 88 94 98 95 95 92 94 94 96 95 94 93 93 86
82 80 81 85 86 88 86 85 86 85 86 88 87 88 88 85 82 91 94 90 93 91 87 92 94 85 82 90 90 94 94 95 96 93 93 87 89 91 91 93 87 95 85

GFSGL_sfc_rhum_123.txt.gz
RH
95 96 92 88 85 83 84 85 88 88 88 83 82 86 83 86 90 93 93 85 86 93 94 90 88 85 86 92 92 94 96 95 92 92 94 97 97 96 98 98 97 98 96
96 96 96 88 86 87 88 89 89 91 92 90 87 91 88 91 92 90 89 79 79 92 94 93 90 87 90 91 97 95 94 96 97 94 97 99 98 96 94 97 98 95 93
98 97 97 94 91 92 91 90 89 89 90 90 90 92 92 94 94 97 83 80 88 89 91 93 90 90 92 93 99 99 99 99 99 98 95 98 97 95 98 97 97 96 94
97 98 98 97 97 94 90 89 90 88 88 87 89 89 90 90 91 92 95 93 87 89 95 97 97 98 97 96 98 98 99 99 99 99 99 98 98 96 97 97 99 97 97
95 96 98 99 97 97 93 88 85 89 88 85 86 88 88 88 92 94 92 95 95 95 95 91 95 96 98 99 97 98 97 98 99 98 99 98 98 98 98 96 97 96 97
96 96 96 96 98 98 97 96 92 90 93 95 91 91 94 96 98 98 94 97 94 94 95 94 91 95 97 98 97 97 98 98 98 98 99 99 99 98 98 99 99 99 98
85 85 88 95 96 97 98 96 96 96 94 95 96 94 96 97 97 99 95 97 97 96 96 94 93 92 96 96 97 96 98 98 99 98 98 99 98 98 97 97 97 98 99
76 84 81 86 89 90 92 94 97 96 96 96 96 96 94 98 98 97 96 97 94 94 95 96 96 97 98 95 93 93 95 98 99 96 98 99 98 94 94 93 96 98 98
78 77 77 78 87 89 91 91 91 92 92 93 93 92 93 94 92 97 94 96 96 97 96 96 95 96 94 96 95 96 96 97 95 94 93 91 90 88 90 94 99 100 100
90 83 77 72 78 85 90 90 90 88 91 88 89 89 87 92 88 91 93 92 93 93 95 96 98 98 100 94 94 93 95 98 97 96 95 94 93 93 89 97 98 100 99
88 88 84 82 80 82 80 84 86 87 85 86 87 88 89 89 86 84 86 94 95 93 94 95 96 89 88 88 91 96 97 97 97 97 97 96 95 94 96 96 98 99 100
92 90 89 87 87 85 85 84 83 84 86 86 86 84 84 86 78 73 77 83 86 91 95 93 89 81 80 78 85 85 87 93 96 95 95 97 97 97 97 97 98 98 98
86 91 93 89 90 89 88 87 84 83 85 87 87 88 87 83 85 75 70 75 85 87 85 80 75 75 77 84 77 80 86 91 93 93 94 96 96 96 92 93 93 95 93
84 90 90 93 93 93 91 88 87 86 86 89 90 90 88 84 84 84 82 82 80 84 83 83 81 79 80 81 84 84 89 91 94 96 96 95 91 92 91 92 97 91 96
91 85 90 84 90 97 97 94 88 84 77 82 88 90 90 86 81 72 73 79 81 81 82 82 84 84 84 85 86 84 85 85 92 93 94 93 94 93 92 89 90 96 96
81 80 82 85 86 84 87 85 81 77 75 67 60 73 86 65 63 64 67 66 67 70 80 87 91 91 92 90 89 90 88 87 90 87 91 92 93 93 93 91 92 96 96
77 79 79 76 78 84 84 84 91 86 67 71 64 59 64 63 67 64 64 68 67 75 87 90 91 92 90 87 90 90 93 91 85 90 90 91 93 92 93 91 92 92 93
81 88 95 87 92 90 94 91 89 89 89 94 74 66 64 62 63 68 64 69 81 78 83 90 92 89 86 87 88 91 90 90 89 91 91 91 93 95 95 94 96 97 95
74 88 93 94 93 91 93 92 93 93 94 95 97 86 86 67 66 71 72 90 93 90 83 84 89 89 88 86 93 92 93 94 91 92 92 93 94 94 94 93 90 93 93
93 86 90 95 92 91 93 92 92 93 94 94 95 94 87 87 91 95 99 100 99 97 96 88 90 92 94 94 94 95 92 93 93 93 94 94 93 94 95 93 95 95 90
96 91 90 95 94 95 96 95 94 95 95 95 96 97 93 97 98 98 99 100 99 99 99 98 99 99 99 97 90 94 93 94 94 95 94 93 94 94 94 92 94 90 84
95 92 91 94 95 92 94 94 94 96 95 96 97 97 93 98 98 98 98 100 99 98 99 98 99 98 98 99 99 100 100 100 99 96 96 94 94 92 93 93 94 94 89
96 95 92 95 95 96 96 95 97 96 96 97 97 97 97 98 99 98 98 100 98 98 99 99 100 99 96 98 100 99 100 100 100 100 100 96 96 95 95 95 99 97 95
96 96 95 96 98 96 98 97 97 97 95 95 98 98 99 99 98 96 98 100 99 100 100 99 99 98 94 97 100 99 97 100 100 100 99 97 96 93 96 94 92 99 96
97 97 98 98 99 100 98 97 98 98 98 99 96 96 95 94 94 95 93 93 95 100 97 96 100 95 96 92 97 94 96 100 100 100 98 98 94 98 93 97 96 97 98
96 95 97 98 98 99 100 97 96 100 100 97 94 92 94 93 94 92 89 88 92 91 96 98 100 98 91 99 91 96 98 99 99 99 100 99 99 98 95 96 93 93 96

GFSGL_sfc_rhum_126.txt.gz
RH
89 95 96 96 94 87 84 86 87 87 87 90 86 87 86 85 89 89 87 92 92 94 91 88 86 82 86 91 87 89 92 97 92 92 95 97 98 97 99 98 98 98 96
90 92 96 97 96 92 90 90 88 87 86 86 87 89 89 91 95 98 98 93 93 94 96 91 87 85 91 92 85 87 92 94 96 88 98 99 98 97 96 98 98 95 95
93 94 95 97 96 97 93 90 88 87 86 87 87 90 90 92 92 91 92 96 93 94 90 92 86 85 93 92 93 92 94 95 96 97 96 98 98 98 99 98 98 98 96
96 95 95 97 98 97 96 90 89 88 88 88 88 89 91 90 88 87 88 92 91 93 94 95 95 96 93 89 89 93 95 97 98 97 98 99 98 98 97 98 99 99 98
96 95 96 96 97 98 95 94 94 94 95 91 88 88 88 89 89 90 88 90 90 90 91 89 94 95 96 97 98 99 99 97 98 98 99 99 100 100 100 99 98 99 99
87 88 90 92 94 96 97 95 95 95 95 95 96 95 94 94 91 91 90 93 90 90 92 92 90 96 93 96 97 97 97 99 99 99 99 99 100 99 98 99 99 99 98
82 82 84 87 90 91 87 91 92 94 94 96 95 96 97 97 98 94 91 94 94 96 94 94 94 92 96 93 94 95 97 98 98 97 98 99 98 98 97 98 98 99 99
77 81 79 84 87 88 88 88 90 90 92 93 94 92 95 97 99 100 98 97 95 94 95 96 96 96 98 98 99 95 97 97 98 96 97 98 98 96 95 94 97 98 99
81 81 77 80 83 85 90 92 90 90 90 91 91 91 91 91 87 89 92 94 95 97 96 95 95 96 94 92 95 97 96 96 96 95 94 95 94 94 94 96 98 100 100
93 85 78 75 82 85 87 89 88 88 89 87 89 89 83 88 82 80 86 88 93 92 91 93 93 93 90 91 96 96 95 98 97 96 95 94 94 95 93 97 96 98 100
94 86 86 84 84 85 83 84 86 86 86 86 86 87 88 80 80 76 76 90 92 90 91 93 89 79 80 87 90 95 97 96 96 96 96 96 96 96 96 97 98 98 99
94 95 92 92 91 91 87 85 83 85 87 87 86 84 83 90 72 71 71 75 80 89 94 90 85 76 78 77 83 84 85 89 92 93 93 95 96 95 95 96 98 98 98
90 94 98 95 93 94 92 89 86 84 86 88 87 88 86 84 86 74 73 72 77 86 83 79 73 75 79 84 77 80 86 92 93 94 95 96 96 95 91 92 92 92 95
89 90 90 93 95 97 94 89 86 83 84 89 91 93 88 84 85 83 84 87 82 84 84 84 82 81 80 82 86 86 89 91 92 95 95 94 90 91 92 90 93 90 96
89 90 91 88 91 89 93 96 92 80 72 80 89 88 91 86 80 72 74 83 85 83 82 81 86 86 88 87 86 86 88 88 91 92 92 92 91 89 89 88 89 92 97
82 80 87 87 89 88 92 86 72 67 63 61 63 70 83 67 63 64 67 67 71 75 83 90 92 92 92 92 92 90 89 89 90 91 92 90 92 93 93 87 88 92 95
84 68 75 76 79 85 86 90 96 87 70 63 63 61 62 64 64 64 65 67 66 75 89 91 93 94 93 90 91 92 94 92 86 88 92 93 92 90 94 91 94 90 93
88 94 93 95 95 95 98 96 97 94 95 97 80 71 61 62 64 66 64 65 79 76 82 90 92 90 89 91 91 92 91 91 91 92 94 94 94 94 93 94 89 100 97
83 96 96 96 97 97 97 96 96 96 98 98 97 94 94 64 73 76 77 95 95 93 85 91 96 90 85 90 96 95 96 91 94 95 95 93 95 94 92 93 96 94 93
94 94 94 94 94 95 96 94 96 96 96 97 96 98 96 91 98 100 100 100 100 99 99 98 97 97 98 99 100 100 94 93 92 93 96 95 95 95 94 94 95 95 90
97 94 95 96 94 96 97 96 97 98 98 97 98 99 97 97 99 99 100 100 100 99 100 98 99 99 100 100 99 100 99 100 99 96 97 96 96 96 92 94 94 89 85
97 96 95 97 96 96 97 94 96 96 96 97 98 97 98 99 97 98 97 100 99 98 99 99 99 98 97 99 100 100 99 100 100 100 100 97 96 96 94 94 97 98 91
96 96 96 95 95 97 96 96 97 98 99 98 98 96 95 97 97 97 98 96 96 99 99 100 100 100 98 98 100 99 98 99 100 100 100 99 96 96 95 97 96 99 98
95 97 96 99 98 98 99 100 100 99 98 100 100 99 98 97 99 97 94 94 94 92 97 98 100 99 98 99 100 100 98 100 100 100 100 100 98 96 96 96 96 99 100
97 98 99 100 100 100 100 100 100 100 100 100 99 99 97 98 99 99 98 95 93 91 91 92 95 97 96 94 98 95 96 100 100 100 100 100 100 99 98 97 99 96 100
98 97 98 98 100 100 100 100 100 100 100 98 99 100 100 98 96 100 99 97 94 91 92 90 92 92 94 97 97 97 99 100 100 100 100 100 100 98 98 100 98 98 97

GFSGL_sfc_rhum_129.txt.gz
RH
88 87 91 95 96 95 95 93 91 88 87 87 87 89 90 90 90 90 91 86 92 92 96 97 96 93 94 91 89 87 90 96 97 87 94 96 98 96 97 98 96 98 97
90 92 95 95 97 96 96 95 91 90 88 87 87 87 88 89 90 93 94 92 96 95 93 97 96 95 93 89 90 92 92 94 96 92 92 98 98 98 95 97 97 97 95
95 95 94 95 96 96 95 95 91 90 88 86 86 89 88 90 89 90 93 96 95 95 95 97 98 95 94 93 92 93 92 93 92 93 87 97 96 99 99 99 97 96 94
94 96 95 96 96 97 96 95 93 87 88 87 85 87 88 87 88 88 88 91 91 92 94 94 94 95 97 97 94 94 88 93 90 92 92 96 99 99 98 97 98 98 98
87 89 96 96 95 93 95 90 88 90 89 87 89 88 89 88 88 92 90 92 91 91 92 90 94 93 95 97 94 97 98 94 90 95 94 95 98 99 98 99 98 98 98
87 86 86 87 89 89 89 88 89 88 88 89 93 94 96 97 97 92 89 91 90 92 94 92 91 95 92 94 94 95 96 98 99 97 96 98 99 100 99 99 99 100 100
84 84 85 84 87 89 87 87 89 92 90 91 90 93 95 96 98 97 94 91 92 93 93 93 92 92 94 90 91 92 96 98 94 92 95 98 98 98 98 98 98 99 100
78 83 83 86 86 87 87 90 90 90 92 93 92 89 88 87 87 94 94 96 95 94 95 94 95 95 96 95 92 93 95 96 98 96 96 98 98 98 98 97 99 99 99
81 81 80 84 86 87 90 90 91 90 90 91 92 88 88 83 78 83 88 91 92 94 94 95 96 97 96 96 95 94 93 96 96 93 94 95 96 97 96 94 98 99 100
92 86 81 77 85 87 88 90 89 89 90 88 89 92 79 87 72 73 84 88 92 91 91 92 88 87 86 87 94 94 94 97 96 95 96 94 95 95 94 98 96 96 98
93 88 88 90 86 87 84 86 89 88 87 87 87 88 88 79 80 71 74 89 92 90 91 92 92 83 83 84 85 93 94 93 94 93 93 93 94 94 95 96 97 97 97
96 96 96 94 95 95 91 87 87 88 88 87 86 84 84 85 73 74 72 74 80 89 94 89 85 78 82 79 84 83 83 87 90 91 92 93 94 95 94 94 95 97 98
94 96 99 96 96 96 94 88 86 89 87 90 87 88 86 84 85 76 75 74 77 86 83 79 76 77 79 85 79 82 88 90 91 92 94 95 95 92 89 90 88 89 94
95 96 95 96 94 96 96 88 85 86 91 88 92 91 89 85 85 83 84 88 86 85 83 83 81 81 79 82 85 86 87 90 92 94 95 93 89 89 88 86 89 89 95
90 93 94 89 95 94 91 84 84 81 76 86 90 92 90 88 81 70 73 80 85 84 82 81 85 85 86 86 86 85 86 85 90 92 93 93 91 89 88 86 82 89 98
77 80 90 88 90 88 94 90 69 63 61 61 60 72 87 65 62 63 65 64 68 71 79 87 89 91 92 91 90 89 86 87 89 90 92 91 92 92 92 87 86 91 94
78 70 80 78 84 93 96 93 96 90 68 63 61 58 60 61 62 62 61 64 63 74 86 91 92 91 92 89 89 89 88 84 86 89 93 94 93 91 93 91 92 88 88
88 93 94 97 98 98 99 98 99 98 100 97 84 70 62 63 64 67 64 65 78 79 84 91 92 89 87 86 88 88 85 86 87 90 94 95 95 95 94 92 92 96 93
84 95 97 98 98 98 97 97 97 97 98 99 97 95 96 71 76 82 83 99 99 96 91 92 98 92 88 87 99 97 100 96 96 98 95 95 96 96 94 92 93 94 93
98 97 95 97 97 97 98 98 97 98 98 98 98 98 97 94 99 100 100 100 100 99 99 98 96 94 98 98 100 100 96 98 94 92 96 98 97 97 96 95 94 97 90
98 97 96 96 97 98 99 98 97 98 98 98 100 100 99 98 98 98 97 97 98 98 100 98 99 100 100 100 98 100 96 99 99 97 98 97 99 98 95 95 95 95 90
97 97 96 98 93 96 97 95 97 98 98 98 99 96 98 96 97 97 96 97 97 97 96 97 98 98 98 97 99 100 99 100 100 100 100 99 96 96 95 96 96 96 95
96 97 97 95 94 98 97 97 98 99 100 99 99 98 97 99 99 97 96 96 95 94 94 95 97 97 97 100 100 100 100 98 99 100 100 100 99 98 98 98 97 96 97
95 98 96 99 98 98 100 100 100 100 99 100 100 100 100 99 100 100 100 98 95 92 94 94 94 94 94 95 100 100 98 100 100 100 100 100 100 99 97 96 97 97 97
98 99 98 100 100 100 100 100 100 100 100 100 100 100 100 98 98 100 99 99 97 96 93 93 89 88 92 94 95 96 99 100 100 100 100 100 100 100 98 98 99 97 98
97 97 98 99 100 100 100 100 100 100 100 100 100 100 100 100 99 100 99 97 95 93 92 89 90 92 90 91 89 93 98 100 100 100 100 100 100 100 99 100 97 96 96